Location: ?????????
(53.2086°N, 54.0693°E)
Time: 12:11:31
(UTC+00:00)

COBE Rocket - Pass Details

Date: 08 December 2019
Orbit: 681 x 781 km, 97.1° (Epoch: 25 January)

Event Time Altitude Azimuth Distance (km) Brightness Sun altitude
Exits shadow 14:16:08 - 11° (N) 2,406 6.3 -18.1°
Reaches altitude 10° 14:16:48 10° 10° (N) 2,137 6.1 -18.2°
Maximum altitude 14:21:27 75° 286° (WNW) 713 3.9 -18.9°
Drops below altitude 10° 14:26:06 10° 202° (SSW) 2,132 6.7 -19.6°
Sets 14:28:20 0° 201° (SSW) 3,052 7.6 -19.9°
